Terug naar catalogus

DELTA 1 DEB

ActiefPO
NORAD 21361·DEBRIS·🇺🇸 United States

Gelanceerd Jun 12, 1975 vanaf Vandenberg Space Force Base

Loading…

Volgende Passages (komende 24 uur)

TLE

VersSource: Space-Track

Epoch: Sep 14, 2026, 13:19 UTC

1 21361U 75052CF  26257.55491865  .00000195  00000-0  12926-2 0  9994
2 21361  99.5948 115.9980 0690016  50.0263 341.2314 12.03671296 13368

Volg DELTA 1 DEB in realtime met AllMySat

Download on the App Store